Time,TemperatureF,DewpointF,PressureIn,WindDirection,WindDirectionDegrees,WindSpeedMPH,WindSpeedGustMPH,Humidity,HourlyPrecipIn,Conditions,Clouds,dailyrainin,SoftwareType,DateUTC
2013-05-05 00:00:00,35.0,-99.9,-100.00,North,360,0.0,0.0,-999,-99.99,,,0.00,,2013-05-05 06:00:00,
2013-05-05 01:00:00,35.0,-99.9,-100.00,North,0,0.0,0.0,-999,-99.99,,,0.00,,2013-05-05 07:00:00,
2013-05-05 01:52:00,35.0,-99.9,-100.00,North,-999,-999.0,-999.0,-999,-99.99,,,0.00,,2013-05-05 07:52:00,
2013-05-05 02:00:00,34.0,-99.9,-100.00,North,0,0.0,0.0,-999,-99.99,,,0.00,,2013-05-05 08:00:00,
2013-05-05 03:00:00,32.0,-99.9,-100.00,North,0,0.0,0.0,-999,-99.99,,,0.00,,2013-05-05 09:00:00,
2013-05-05 04:00:00,31.0,-99.9,-100.00,North,360,0.0,0.0,-999,-99.99,,,0.00,,2013-05-05 10:00:00,
2013-05-05 05:00:00,31.0,-99.9,-100.00,North,-999,-999.0,-999.0,-999,-99.99,,,0.00,,2013-05-05 11:00:00,
2013-05-05 06:00:00,29.0,-99.9,-100.00,North,360,0.0,0.0,-999,-99.99,,,0.00,,2013-05-05 12:00:00,
2013-05-05 07:00:00,32.0,-99.9,-100.00,North,360,0.0,0.0,-999,-99.99,,,0.00,,2013-05-05 13:00:00,
2013-05-05 09:00:00,49.0,-99.9,-100.00,North,0,0.0,0.0,-999,-99.99,,,0.00,,2013-05-05 15:00:00,
2013-05-05 11:00:00,54.0,-99.9,-100.00,North,360,0.0,0.0,-999,-99.99,,,0.00,,2013-05-05 17:00:00,
2013-05-05 12:00:00,54.0,-99.9,-100.00,North,0,0.0,0.0,-999,-99.99,,,0.00,,2013-05-05 18:00:00,
2013-05-05 13:00:00,51.0,-99.9,-100.00,North,0,0.0,0.0,-999,-99.99,,,0.00,,2013-05-05 19:00:00,
2013-05-05 14:00:00,53.0,-99.9,-100.00,North,0,0.0,0.0,-999,-99.99,,,0.00,,2013-05-05 20:00:00,
2013-05-05 15:00:00,51.0,-99.9,-100.00,North,360,0.0,0.0,-999,-99.99,,,0.00,,2013-05-05 21:00:00,
2013-05-05 16:00:00,49.0,-99.9,-100.00,North,360,0.0,0.0,-999,-99.99,,,0.00,,2013-05-05 22:00:00,
2013-05-05 17:00:00,48.0,-99.9,-100.00,North,-999,-999.0,-999.0,-999,-99.99,,,0.00,,2013-05-05 23:00:00,
2013-05-05 18:00:00,49.0,-99.9,-100.00,North,-999,-999.0,-999.0,-999,-99.99,,,0.00,,2013-05-06 00:00:00,
2013-05-05 18:52:00,49.0,-99.9,-100.00,North,-999,-999.0,-999.0,-999,-99.99,,,0.00,,2013-05-06 00:52:00,
2013-05-05 19:00:00,47.0,-99.9,-100.00,North,-999,-999.0,-999.0,-999,-99.99,,,0.00,,2013-05-06 01:00:00,
2013-05-05 20:00:00,45.0,-99.9,-100.00,North,-999,-999.0,-999.0,-999,-99.99,,,0.00,,2013-05-06 02:00:00,
2013-05-05 20:52:00,45.0,-99.9,-100.00,North,-999,-999.0,-999.0,-999,-99.99,,,0.00,,2013-05-06 02:52:00,
2013-05-05 21:00:00,43.0,-99.9,-100.00,North,360,0.0,0.0,-999,-99.99,,,0.00,,2013-05-06 03:00:00,
2013-05-05 22:00:00,40.0,-99.9,-100.00,North,360,0.0,0.0,-999,-99.99,,,0.00,,2013-05-06 04:00:00,
2013-05-05 23:00:00,38.0,-99.9,-100.00,North,360,0.0,0.0,-999,-99.99,,,0.00,,2013-05-06 05:00:00,